CAPE
0 0 0 0 0 0 0 0 0 0 0 0 0 0 0 0 0 0 0 0 0 0 0 0 0 0 0 0 0 0 0 0
0 0 0 0 0 0 0 0 0 0 0 0 0 0 0 0 0 0 0 0 0 0 0 0 0 0 0 0 0 0 0 0
0 0 0 0 0 0 0 0 0 0 0 0 0 0 0 0 0 0 0 0 0 0 0 0 0 0 0 0 0 0 0 0
0 0 0 0 0 0 0 0 0 0 0 0 0 0 0 0 0 0 0 0 0 0 0 0 0 0 0 0 0 0 0 0
0 0 0 0 0 0 0 0 0 0 0 0 0 0 0 0 0 0 0 0 0 0 0 0 0 0 0 0 0 0 0 0
0 0 0 0 0 0 0 0 0 0 0 0 0 0 0 0 0 0 0 0 0 0 0 0 0 0 0 0 0 0 0 0
0 0 0 0 0 0 0 0 0 0 0 0 0 0 0 0 0 0 0 0 0 0 0 0 0 0 0 0 0 0 0 0
0 0 0 0 0 0 0 0 0 0 0 0 0 0 0 0 0 0 0 0 0 0 0 0 0 0 0 0 0 0 0 0
0 0 0 0 0 0 0 0 0 0 0 0 0 0 0 0 0 0 0 0 0 0 0 0 0 0 0 0 0 0 0 0
0 0 0 0 0 0 0 0 0 0 0 0 0 0 0 0 0 0 0 0 0 0 0 0 0 0 0 0 0 0 0 0
0 0 0 0 0 0 0 0 0 0 0 0 0 0 0 0 0 0 0 0 0 0 0 0 0 0 0 0 0 0 0 0
0 0 0 0 0 0 0 0 0 0 0 0 0 0 0 0 0 0 0 0 0 0 0 0 0 0 0 0 0 0 0 0
0 0 0 0 0 0 0 0 0 0 0 0 0 0 0 0 0 0 0 0 0 0 0 0 0 0 0 0 0 0 0 0
0 0 0 0 0 0 0 0 0 0 0 0 0 0 0 0 0 0 0 0 0 0 0 0 0 0 0 0 0 0 0 0
0 0 0 0 0 0 0 0 0 0 0 0 0 0 0 0 0 0 0 0 0 0 0 0 0 0 0 0 0 0 0 0
0 0 0 0 0 0 0 0 0 0 0 0 0 0 0 0 0 0 0 0 0 0 0 0 0 0 0 1 1 0 0 0
0 0 0 0 0 0 0 0 0 0 0 0 0 0 0 0 0 0 0 0 0 0 0 0 0 0 4 11 8 0 0 0
0 0 0 0 0 0 0 0 0 0 0 0 0 0 0 0 0 0 0 0 0 0 0 0 0 0 8 15 22 0 1 0
0 0 0 0 0 0 0 0 0 0 0 0 0 0 0 0 0 0 0 0 0 0 0 0 0 0 10 16 26 0 0 0
CIN
0 0 0 0 0 0 0 0 0 0 0 0 0 0 0 0 0 0 0 0 0 0 0 0 0 0 0 0 0 0 0 0
0 0 0 0 0 0 0 0 0 0 0 0 0 0 0 0 0 0 0 0 0 0 0 0 0 0 0 0 0 0 0 0
0 0 0 0 0 0 0 0 0 0 0 0 0 0 0 0 0 0 0 0 0 0 0 0 0 0 0 0 0 0 0 0
0 0 0 0 0 0 0 0 0 0 0 0 0 0 0 0 0 0 0 0 0 0 0 0 0 0 0 0 0 0 0 0
0 0 0 0 0 0 0 0 0 0 0 0 0 0 0 0 0 0 0 0 0 0 0 0 0 0 0 0 0 0 0 0
0 0 0 0 0 0 0 0 0 0 0 0 0 0 0 0 0 0 0 0 0 0 0 0 0 0 0 0 0 0 0 0
0 0 0 0 0 0 0 0 0 0 0 0 0 0 0 0 0 0 0 0 0 0 0 0 0 0 0 0 0 0 0 0
0 0 0 0 0 0 0 0 0 0 0 0 0 0 0 0 0 0 0 0 0 0 0 0 0 0 0 0 0 0 0 0
0 0 0 0 0 0 0 0 0 0 0 0 0 0 0 0 0 0 0 0 0 0 0 0 0 0 0 0 0 0 0 0
0 0 0 0 0 0 0 0 0 0 0 0 0 0 0 0 0 0 0 0 0 0 0 0 0 0 0 0 0 0 0 0
0 0 0 0 0 0 0 0 0 0 0 0 0 0 0 0 0 0 0 0 0 0 0 0 0 0 0 0 0 0 0 0
0 0 0 0 0 0 0 0 0 0 0 0 0 0 0 0 0 0 0 0 0 0 0 0 0 0 0 0 0 0 0 0
0 0 0 0 0 0 0 0 0 0 0 0 0 0 0 0 0 0 0 0 0 0 0 0 0 0 0 0 0 0 0 0
0 0 0 0 0 0 0 0 0 0 0 0 0 0 0 0 0 0 0 0 0 0 0 0 0 0 0 0 0 0 0 0
0 0 0 0 0 0 0 0 0 0 0 0 0 0 0 0 0 0 0 0 0 0 0 0 0 0 0 0 0 0 0 0
0 0 0 0 0 0 0 0 0 0 0 0 0 0 0 0 0 0 0 0 0 0 0 0 0 0 0 -3 -5 0 0 0
0 0 0 0 0 0 0 0 0 0 0 0 0 0 0 0 0 0 0 0 0 0 0 0 0 0 0 0 0 0 0 0
0 0 0 0 0 0 0 0 0 0 0 0 0 0 0 0 0 0 0 0 0 0 0 0 0 0 0 0 0 0 0 0
0 0 0 0 0 0 0 0 0 0 0 0 0 0 0 0 0 0 0 0 0 0 0 0 0 0 0 0 0 0 -1 -1
Wind_Speed
13 14 13 13 10 9 9 8 7 5 4 4 4 4 5 5 4 4 6 4 4 5 4 5 5 4 4 4 3 3 2 3
12 12 11 11 10 10 8 7 7 5 4 3 4 3 3 4 6 7 7 5 5 4 3 5 5 4 4 4 3 3 3 3
12 11 9 8 9 7 7 6 5 6 4 3 3 3 3 2 3 6 7 7 6 3 5 5 5 4 6 5 3 3 2 2
10 10 5 6 8 6 5 5 6 7 8 5 4 3 3 4 4 4 5 6 6 6 5 4 5 3 4 4 3 3 2 3
10 7 5 6 4 2 5 6 6 7 8 5 6 3 3 2 3 3 5 6 6 5 6 5 5 4 5 4 2 2 1 3
9 7 6 4 2 4 4 5 8 6 7 6 4 4 2 3 3 6 6 6 6 6 6 6 6 4 4 5 5 4 2 2
6 5 6 3 3 5 5 6 6 6 6 6 6 5 5 5 5 4 5 4 5 6 6 5 6 5 5 5 5 5 5 4
7 7 4 4 6 4 4 6 5 4 5 6 6 6 5 5 5 4 6 4 4 6 5 6 5 5 6 5 5 6 5 4
6 6 5 4 4 5 5 5 4 5 5 6 5 6 3 3 4 4 5 4 5 6 7 6 7 7 6 5 4 4 5 5
7 6 4 4 4 4 4 4 4 5 5 4 5 5 6 5 7 5 4 6 6 7 8 7 8 7 6 6 3 5 6 7
6 5 4 2 4 4 5 5 4 3 4 4 4 5 6 6 6 7 7 7 7 8 8 8 7 7 5 4 4 7 8 9
6 5 3 4 5 5 4 5 5 5 5 4 6 6 6 7 6 7 7 7 8 9 8 8 7 6 5 5 6 9 11 11
6 5 3 4 4 4 5 5 6 3 3 5 6 6 6 7 7 9 8 8 8 9 9 8 7 5 6 6 9 10 12 12
6 4 4 3 4 4 6 5 4 4 4 6 6 7 7 7 8 8 9 9 9 10 9 9 8 6 6 6 9 11 11 11
6 5 3 4 4 5 5 5 5 4 5 5 6 7 6 7 7 8 9 9 9 9 9 9 9 11 8 11 12 12 12 10
7 5 4 5 4 6 5 5 5 4 5 6 6 6 6 7 7 8 8 9 9 9 9 10 10 10 8 14 14 12 12 12
7 6 6 5 4 6 5 4 4 4 5 6 6 6 6 6 7 7 7 9 9 9 10 10 11 9 22 25 21 12 12 12
6 6 5 3 6 5 5 4 3 5 6 6 6 5 5 6 6 6 8 9 8 9 10 10 12 11 25 27 28 11 11 11
6 5 4 5 5 5 4 4 5 6 6 6 6 5 5 6 6 7 7 6 7 8 9 11 11 10 25 28 27 13 11 13
Wind_Direction
76 79 76 74 69 66 56 47 28 5 6 15 26 27 25 35 22 0 355 342 360 23 3 352 353 345 339 342 318 320 299 325
80 70 72 78 65 63 50 45 22 24 17 10 16 14 7 22 14 5 357 349 6 15 343 338 342 339 316 319 306 325 317 337
84 78 60 65 75 60 44 42 26 30 29 13 24 13 14 13 359 7 3 5 10 356 347 334 339 332 337 338 346 313 285 351
109 92 82 71 63 55 59 49 43 36 30 28 10 17 13 4 353 350 345 4 4 353 344 336 329 335 326 315 322 347 303 297
116 110 88 87 80 67 62 52 42 42 31 37 45 35 11 318 305 311 343 356 349 350 345 346 338 336 344 315 332 267 261 293
124 128 125 93 102 66 56 50 42 35 45 49 45 23 325 303 331 350 344 334 339 336 341 332 331 334 316 297 304 312 274 238
121 119 110 129 70 54 42 46 46 39 46 43 43 24 350 359 343 340 327 316 312 325 328 321 313 313 303 295 293 283 272 251
133 123 131 84 61 50 58 63 51 35 40 34 22 17 15 357 335 313 324 315 304 305 313 311 302 295 295 296 286 283 274 258
135 150 134 99 82 69 61 65 44 30 32 24 15 14 352 331 315 312 304 292 293 292 301 300 293 292 292 299 291 288 284 278
153 151 129 93 92 73 85 77 38 39 43 24 6 353 351 330 325 315 296 298 303 303 302 298 296 293 295 312 314 308 296 285
153 142 118 100 84 84 87 66 65 69 46 13 355 338 333 332 326 323 316 311 308 308 308 307 306 304 326 357 319 303 298 303
142 127 101 70 78 97 78 64 71 62 24 358 360 346 341 336 331 324 322 312 322 323 317 313 318 334 11 336 315 310 313 308
121 117 109 76 78 77 71 60 71 51 17 11 5 356 345 345 336 331 329 328 330 331 332 336 340 358 338 322 314 310 313 313
115 128 94 61 78 64 66 62 62 44 30 17 0 352 355 344 338 331 337 341 339 341 345 344 337 327 320 310 307 307 309 311
135 124 88 75 58 82 74 61 50 35 29 12 0 352 353 349 338 343 348 342 343 344 342 340 340 327 307 332 324 320 311 311
144 120 89 57 49 75 70 60 43 16 31 7 353 354 4 355 346 347 339 345 344 339 339 340 339 336 335 336 337 324 323 316
126 109 99 59 68 87 76 55 21 21 21 357 351 2 5 351 341 337 340 344 342 338 341 340 335 337 339 341 343 336 324 317
113 110 95 79 96 102 81 45 19 24 11 345 352 359 358 347 336 339 343 340 333 336 332 334 332 326 344 345 346 337 325 321
113 117 104 91 98 88 82 46 37 24 357 343 348 357 349 340 336 341 334 330 333 333 329 331 330 328 343 351 350 338 333 333